DW3835 Weather Reports


Display with metric or nautical units.
time (UTC)temp
F
wind
direction
speed
MPH
gust
MPH
rain 1hr
in
rain 24hr
in
rain mn
in
humidity
%
barometer
mb
20260831215637 65 205 0.0 5.0 0.00 0.00 0.00 74 1012.2
20260831214624 65 136 1.0 5.0 0.00 0.00 0.00 74 1012.3
20260831213549 65 109 1.0 6.0 0.00 0.00 0.00 73 1012.4
20260831210407 64 180 1.0 8.0 0.00 0.00 0.00 76 1012.7
20260831205356 64 137 2.0 9.0 0.00 0.00 0.00 76 1012.7
20260831203147 63 160 1.0 6.0 0.00 0.00 0.00 77 1012.7
20260831202117 63 189 1.0 6.0 0.00 0.00 0.00 78 1012.7
20260831200010 63 188 2.0 4.0 0.00 0.00 0.00 78 1012.5
20260831193835 62 167 1.0 6.0 0.00 0.00 0.00 79 1012.8
20260831192804 61 91 2.0 6.0 0.00 0.00 0.00 80 1012.8
20260831190617 61 169 1.0 6.0 0.00 0.00 0.00 80 1012.8
20260831185617 61 171 2.0 6.0 0.00 0.00 0.00 81 1012.9
20260831184553 60 188 1.0 6.0 0.00 0.00 0.00 82 1012.9
20260831183615 61 142 1.0 6.0 0.00 0.00 0.00 82 1012.9
20260831182547 60 163 1.0 5.0 0.00 0.00 0.00 82 1013.0
20260831180359 60 136 2.0 8.0 0.00 0.00 0.00 83 1012.8
20260831175351 59 202 1.0 8.0 0.00 0.00 0.00 83 1012.9
20260831174414 59 174 2.0 6.0 0.00 0.00 0.00 84 1012.8
20260831172249 59 130 2.0 8.0 0.00 0.00 0.00 84 1012.7
20260831170124 59 82 2.0 5.0 0.00 0.00 0.00 83 1012.5
20260831165142 59 157 2.0 7.0 0.00 0.00 0.00 84 1012.4
20260831164117 59 126 2.0 7.0 0.00 0.00 0.00 84 1012.3
20260831163105 59 150 1.0 5.0 0.00 0.00 0.00 85 1012.2
20260831162046 58 147 2.0 8.0 0.00 0.00 0.00 85 1012.1
20260831161105 58 134 1.0 8.0 0.00 0.00 0.00 85 1012.1
20260831160052 58 107 1.0 6.0 0.00 0.00 0.00 85 1012.2
20260831153910 57 102 1.0 7.0 0.00 0.00 0.00 86 1012.1
20260831152851 57 223 2.0 7.0 0.00 0.00 0.00 86 1012.1
20260831151818 57 147 1.0 6.0 0.00 0.00 0.00 86 1011.9
20260831144445 57 175 1.0 7.0 0.00 0.00 0.00 85 1011.9
20260831142314 57 116 1.0 8.0 0.00 0.00 0.00 86 1011.6
20260831140210 57 140 1.0 7.0 0.00 0.00 0.00 86 1011.4
20260831135141 57 192 2.0 7.0 0.00 0.00 0.00 86 1011.2
20260831134136 57 266 1.0 5.0 0.00 0.00 0.00 86 1011.2
20260831133147 57 147 1.0 5.0 0.00 0.00 0.00 86 1011.0
20260831131111 57 209 2.0 6.0 0.00 0.00 0.00 86 1011.0
20260831130129 57 138 2.0 6.0 0.00 0.00 0.00 86 1010.9
20260831125127 57 184 2.0 7.0 0.00 0.00 0.00 86 1010.8
20260831124137 57 120 2.0 7.0 0.00 0.00 0.00 85 1010.7
20260831123157 57 186 1.0 7.0 0.00 0.00 0.00 85 1010.7
20260831122144 57 120 1.0 7.0 0.00 0.00 0.00 85 1010.7
20260831121129 57 279 1.0 10.0 0.00 0.00 0.00 85 1010.7
20260831120135 57 181 2.0 10.0 0.00 0.00 0.00 85 1010.6
20260831115133 57 138 1.0 7.0 0.00 0.00 0.00 85 1010.7
20260831114132 57 230 1.0 5.0 0.00 0.00 0.00 85 1010.6
20260831113137 57 166 2.0 7.0 0.00 0.00 0.00 86 1010.5
20260831112114 57 215 2.0 8.0 0.00 0.00 0.00 86 1010.6
20260831111125 58 167 1.0 8.0 0.00 0.00 0.00 85 1010.7
20260831105006 58 71 1.0 3.0 0.00 0.00 0.00 86 1010.5
20260831103938 58 165 0.0 3.0 0.00 0.00 0.00 86 1010.5
20260831102908 58 192 1.0 5.0 0.00 0.00 0.00 86 1010.4
20260831101851 58 162 1.0 5.0 0.00 0.00 0.00 86 1010.4
20260831100824 58 175 1.0 5.0 0.00 0.00 0.00 86 1010.3
20260831095800 58 203 1.0 5.0 0.00 0.00 0.00 86 1010.5
20260831094732 58 184 0.0 3.0 0.00 0.00 0.00 86 1010.4
20260831090434 57 150 0.0 3.0 0.00 0.00 0.00 86 1010.6
20260831084319 58 158 0.0 1.0 0.00 0.00 0.00 85 1010.5
20260831083243 58 190 0.0 4.0 0.00 0.00 0.00 86 1010.6
20260831082308 58 215 1.0 4.0 0.00 0.00 0.00 86 1010.7
20260831081300 58 144 0.0 3.0 0.00 0.00 0.00 86 1010.9
20260831080304 58 209 1.0 5.0 0.00 0.00 0.00 86 1010.9
20260831074226 58 142 0.0 3.0 0.00 0.00 0.00 86 1010.9
20260831073236 58 150 0.0 2.0 0.00 0.00 0.00 85 1010.8
20260831071155 58 171 0.0 2.0 0.00 0.00 0.00 85 1010.9
20260831070125 58 178 0.0 4.0 0.00 0.00 0.00 85 1010.9
20260831065126 57 165 0.0 5.0 0.00 0.00 0.00 85 1010.9
20260831064149 58 117 0.0 5.0 0.00 0.00 0.00 84 1010.9
20260831063142 58 149 1.0 4.0 0.00 0.00 0.00 85 1011.0
20260831061039 58 198 0.0 2.0 0.00 0.00 0.00 84 1011.0
20260831060015 58 159 0.0 0.0 0.00 0.00 0.00 83 1011.0
20260831054959 58 166 0.0 0.0 0.00 0.00 0.00 82 1010.9
20260831053935 58 166 0.0 0.0 0.00 0.00 0.00 81 1010.9
20260831052953 59 151 0.0 0.0 0.00 0.00 0.00 81 1010.9
20260831051927 58 153 0.0 2.0 0.00 0.00 0.00 81 1010.9
20260831050938 59 128 0.0 0.0 0.00 0.00 0.00 80 1011.0
20260831045954 59 161 0.0 2.0 0.00 0.00 0.00 81 1011.1
20260831043821 59 144 0.0 3.0 0.00 0.00 0.00 80 1011.0
20260831042805 60 165 0.0 3.0 0.00 0.00 0.00 78 1010.8
20260831041746 61 145 0.0 0.0 0.00 0.00 0.00 77 1010.7
20260831040720 61 164 0.0 1.0 0.00 0.00 0.00 77 1010.6
20260831035706 62 176 0.0 0.0 0.00 0.00 0.00 75 1010.5
20260831034632 62 196 0.0 0.0 0.00 0.00 0.00 74 1010.5
20260831033618 62 198 0.0 5.0 0.00 0.00 0.00 74 1010.4
20260831032625 62 219 0.0 3.0 0.00 0.00 0.00 73 1010.2
20260831031554 62 174 1.0 3.0 0.00 0.00 0.00 73 1010.1
20260831024324 64 161 0.0 3.0 0.00 0.00 0.00 69 1010.0
20260831023342 65 149 0.0 2.0 0.00 0.00 0.00 67 1009.9
20260831022342 66 169 0.0 2.0 0.00 0.00 0.00 66 1009.9
20260831021404 66 155 0.0 3.0 0.00 0.00 0.00 64 1009.9
20260831020423 67 182 0.0 3.0 0.00 0.00 0.00 63 1009.9
20260831015436 67 163 0.0 2.0 0.00 0.00 0.00 62 1010.0
20260831014402 68 158 0.0 2.0 0.00 0.00 0.00 61 1009.8
20260831013345 68 151 0.0 4.0 0.00 0.00 0.00 61 1009.9
20260831012333 69 103 1.0 4.0 0.00 0.00 0.00 61 1010.0
20260831011355 69 169 0.0 4.0 0.00 0.00 0.00 61 1010.0
20260831010408 69 164 1.0 4.0 0.00 0.00 0.00 60 1010.1
20260831005425 69 165 1.0 4.0 0.00 0.00 0.00 61 1010.2
20260831004414 69 121 1.0 5.0 0.00 0.00 0.00 61 1010.2
20260831003348 70 155 1.0 5.0 0.00 0.00 0.00 62 1010.2
20260831002320 71 109 1.0 4.0 0.00 0.00 0.00 62 1010.3
20260831001309 71 159 1.0 4.0 0.00 0.00 0.00 61 1010.3
20260831000307 72 143 1.0 6.0 0.00 0.00 0.00 59 1010.4
20260830235239 72 126 1.0 6.0 0.00 0.00 0.00 59 1010.3
20260830232012 74 165 1.0 6.0 0.00 0.00 0.00 57 1010.5
20260830230951 75 178 1.0 4.0 0.00 0.00 0.00 57 1010.5
20260830230012 75 184 0.0 4.0 0.00 0.00 0.00 56 1010.4
20260830225037 75 150 1.0 4.0 0.00 0.00 0.00 56 1010.5
20260830224102 75 243 1.0 4.0 0.00 0.00 0.00 56 1010.6
20260830223105 75 188 1.0 4.0 0.00 0.00 0.00 56 1010.8
20260830222127 75 218 0.0 4.0 0.00 0.00 0.00 56 1010.9
20260830221103 75 189 1.0 4.0 0.00 0.00 0.00 57 1011.0